Location: Moscow
(55.7500°N, 37.5830°E)
Time: 01:56:10
(UTC+03:00)

Explorer 7 - Pass Details

Date: 09 December 2021
Orbit: 483 x 674 km, 50.3° (Epoch: 20 January)

Event Time Altitude Azimuth Distance (km) Brightness Sun altitude
Exits shadow 05:24:14 28° 158° (SSE) 1,101 8.5 -26.7°
Drops below altitude 10° 05:27:45 10° 101° (E) 1,828 10.5 -26.2°
Sets 05:30:08 0° 89° (E) 2,688 11.7 -25.9°
